CXA8143 ZGHA-ZBTJ

Flight info

Callsign CXA8143
Flight time 0h 52m
Altitude 35100
Route GUD7W GUDRO W56 LEBUN/K0852S1100 W56 NUDKU/K0852S1070 W56 GUVRI W85 OMDEK OMDEK5R
Aircraft B738/M-SDE2E3FGHIRWXY/LB1

Departure

Time 2026-04-18 10:02
Airport Changsha Huanghua International Airport (ZGHA)

Arrival

Time 2026-04-18 10:54
Airport Tianjin Binhai International Airport (ZBTJ)
Time Latitude Longitude Altitude Speed Heading
2026-04-18 09:42 28.18657 113.21549 212 ft 0 kts 358°
2026-04-18 09:53 28.18633 113.21550 214 ft 4 kts 358°
2026-04-18 09:54 28.18606 113.21552 212 ft 4 kts 358°
2026-04-18 09:54 28.18583 113.21549 217 ft 4 kts 46°
2026-04-18 09:54 28.18576 113.21529 214 ft 2 kts 88°
2026-04-18 09:54 28.18575 113.21503 212 ft 2 kts 87°
2026-04-18 09:55 28.18575 113.21502 212 ft 1 kts 87°
2026-04-18 09:57 28.18577 113.21564 215 ft 13 kts 87°
2026-04-18 09:57 28.18588 113.21664 217 ft 13 kts 87°
2026-04-18 09:57 28.18585 113.21763 213 ft 12 kts 86°
2026-04-18 09:58 28.18529 113.21813 217 ft 12 kts 178°
2026-04-18 09:58 28.18422 113.21819 212 ft 23 kts 178°
2026-04-18 09:58 28.18234 113.21832 213 ft 27 kts 179°
2026-04-18 09:58 28.18061 113.21843 213 ft 24 kts 179°
2026-04-18 09:59 28.17899 113.21852 213 ft 23 kts 177°
2026-04-18 09:59 28.17752 113.21883 214 ft 21 kts 134°
2026-04-18 09:59 28.17741 113.21933 217 ft 0 kts 88°
2026-04-18 10:00 28.17741 113.21934 214 ft 1 kts 87°
2026-04-18 10:00 28.17749 113.22012 215 ft 18 kts 84°
2026-04-18 10:00 28.17762 113.22051 219 ft 1 kts 37°
2026-04-18 10:00 28.17776 113.22047 218 ft 2 kts 354°
2026-04-18 10:01 28.17876 113.22041 215 ft 46 kts 358°
2026-04-18 10:01 28.18482 113.22003 215 ft 126 kts 357°
2026-04-18 10:01 28.19592 113.21931 241 ft 190 kts 357°
2026-04-18 10:01 28.21019 113.21846 714 ft 218 kts 357°
2026-04-18 10:02 28.22641 113.21752 1095 ft 247 kts 357°
2026-04-18 10:02 28.24388 113.21675 1878 ft 252 kts 357°
2026-04-18 10:02 28.26078 113.21573 3054 ft 233 kts 356°
2026-04-18 10:02 28.27649 113.21632 3873 ft 226 kts 18°
2026-04-18 10:03 28.28953 113.22587 4471 ft 226 kts 50°
2026-04-18 10:03 28.29871 113.24029 5090 ft 226 kts 57°
2026-04-18 10:03 28.30744 113.25524 5694 ft 229 kts 57°
2026-04-18 10:03 28.31631 113.27038 6290 ft 231 kts 56°
2026-04-18 10:04 28.32532 113.28565 6823 ft 235 kts 56°
2026-04-18 10:04 28.33451 113.30121 7350 ft 240 kts 55°
2026-04-18 10:04 28.34419 113.31758 7613 ft 257 kts 55°
2026-04-18 10:04 28.35434 113.33477 8036 ft 269 kts 55°
2026-04-18 10:05 28.36507 113.35290 8367 ft 287 kts 55°
2026-04-18 10:05 28.37627 113.37187 9035 ft 291 kts 54°
2026-04-18 10:05 28.38760 113.39107 9731 ft 294 kts 54°
2026-04-18 10:05 28.39909 113.41054 10294 ft 301 kts 54°
2026-04-18 10:06 28.41115 113.43092 10473 ft 322 kts 54°
2026-04-18 10:06 28.42409 113.45264 10647 ft 341 kts 51°
2026-04-18 10:06 28.44165 113.47132 10739 ft 355 kts 26°
2026-04-18 10:06 28.46535 113.48015 10899 ft 366 kts
2026-04-18 10:07 28.49121 113.48233 11106 ft 377 kts
2026-04-18 10:07 28.51775 113.48385 11438 ft 385 kts
2026-04-18 10:07 28.54416 113.48533 12021 ft 384 kts
2026-04-18 10:07 28.57085 113.48694 12598 ft 385 kts
2026-04-18 10:08 28.59777 113.48871 13092 ft 387 kts
2026-04-18 10:08 28.62477 113.49057 13560 ft 390 kts
2026-04-18 10:08 28.65194 113.49251 14025 ft 392 kts
2026-04-18 10:08 28.67925 113.49448 14403 ft 395 kts
2026-04-18 10:09 28.70674 113.49646 14787 ft 397 kts 360°
2026-04-18 10:09 28.73440 113.49846 15187 ft 399 kts 360°
2026-04-18 10:09 28.76222 113.50045 15566 ft 402 kts 360°
2026-04-18 10:09 28.79023 113.50246 15949 ft 404 kts 360°
2026-04-18 10:10 28.81840 113.50448 16322 ft 407 kts 360°
2026-04-18 10:10 28.84672 113.50650 16711 ft 409 kts 360°
2026-04-18 10:10 28.87519 113.50854 17101 ft 410 kts 360°
2026-04-18 10:10 28.90378 113.51060 17453 ft 413 kts 360°
2026-04-18 10:11 28.93255 113.51265 17799 ft 415 kts 360°
2026-04-18 10:11 28.96139 113.51472 18151 ft 417 kts 360°
2026-04-18 10:11 28.99047 113.51682 18458 ft 419 kts 360°
2026-04-18 10:11 29.01925 113.51889 18754 ft 421 kts 360°
2026-04-18 10:12 29.04864 113.52101 19049 ft 423 kts 359°
2026-04-18 10:12 29.07810 113.52313 19356 ft 425 kts 360°
2026-04-18 10:12 29.10769 113.52526 19656 ft 427 kts 360°
2026-04-18 10:12 29.13744 113.52740 19949 ft 429 kts 360°
2026-04-18 10:13 29.16732 113.52956 20243 ft 431 kts 360°
2026-04-18 10:13 29.19730 113.53172 20529 ft 433 kts 360°
2026-04-18 10:13 29.22741 113.53390 20795 ft 435 kts 360°
2026-04-18 10:13 29.25774 113.53607 20993 ft 438 kts 360°
2026-04-18 10:14 29.28823 113.53830 21284 ft 439 kts 360°
2026-04-18 10:14 29.31872 113.54078 21628 ft 440 kts
2026-04-18 10:14 29.34929 113.54344 21893 ft 442 kts
2026-04-18 10:14 29.38001 113.54617 22143 ft 444 kts
2026-04-18 10:15 29.41085 113.54894 22407 ft 446 kts
2026-04-18 10:15 29.44182 113.55170 22667 ft 447 kts
2026-04-18 10:15 29.47293 113.55446 22904 ft 449 kts
2026-04-18 10:15 29.50414 113.55720 23149 ft 451 kts
2026-04-18 10:16 29.53547 113.55995 23377 ft 452 kts
2026-04-18 10:16 29.56690 113.56271 23597 ft 454 kts
2026-04-18 10:16 29.59840 113.56548 23847 ft 454 kts
2026-04-18 10:16 29.62987 113.56824 24165 ft 452 kts 360°
2026-04-18 10:17 29.66122 113.57100 24400 ft 453 kts 360°
2026-04-18 10:17 29.69279 113.57376 24508 ft 456 kts 360°
2026-04-18 10:17 29.72461 113.57654 24518 ft 461 kts 360°
2026-04-18 10:17 29.75667 113.57935 24529 ft 464 kts 360°
2026-04-18 10:18 29.78881 113.58219 24515 ft 463 kts 360°
2026-04-18 10:18 29.92215 113.59384 24541 ft 460 kts 360°
2026-04-18 10:18 30.06262 113.61004 24507 ft 469 kts 13°
2026-04-18 10:18 30.09192 113.62721 24533 ft 480 kts 33°
2026-04-18 10:19 30.11684 113.65317 24528 ft 485 kts 40°
2026-04-18 10:19 30.14155 113.67957 24519 ft 482 kts 35°
2026-04-18 10:19 30.16831 113.70242 24521 ft 476 kts 28°
2026-04-18 10:19 30.19683 113.72158 24517 ft 472 kts 23°
2026-04-18 10:20 30.22630 113.73805 24514 ft 469 kts 20°
2026-04-18 10:20 30.25612 113.75301 24512 ft 468 kts 18°
2026-04-18 10:20 30.45912 113.85153 24567 ft 472 kts 19°
2026-04-18 10:20 30.56939 113.90765 24535 ft 472 kts 20°
2026-04-18 10:21 30.63294 113.94055 24518 ft 468 kts 19°
2026-04-18 10:21 30.69115 113.96914 24500 ft 463 kts 18°
2026-04-18 10:21 30.72093 113.98365 24507 ft 465 kts 20°
2026-04-18 10:21 30.76769 114.00990 24521 ft 468 kts 22°
2026-04-18 10:22 30.88545 114.07479 24540 ft 470 kts 20°
2026-04-18 10:22 31.20205 114.24539 24611 ft 471 kts 21°
2026-04-18 10:22 31.29032 114.29391 24576 ft 468 kts 22°
2026-04-18 10:22 31.36756 114.33270 24480 ft 450 kts
2026-04-18 10:23 31.38796 114.33629 24518 ft 447 kts 360°
2026-04-18 10:23 31.42957 114.33576 24528 ft 451 kts 356°
2026-04-18 10:23 31.51382 114.33591 24507 ft 457 kts 357°
2026-04-18 10:23 31.68343 114.34082 24485 ft 463 kts 359°
2026-04-18 10:24 32.02580 114.35133 24480 ft 456 kts 358°
2026-04-18 10:24 32.20444 114.35679 24468 ft 451 kts 359°
2026-04-18 10:24 32.24587 114.35846 24509 ft 449 kts 359°
2026-04-18 10:24 32.27703 114.36000 24515 ft 449 kts
2026-04-18 10:25 32.74756 114.40166 24408 ft 448 kts
2026-04-18 10:25 33.73890 114.49477 24524 ft 447 kts
2026-04-18 10:25 34.38541 114.56231 24596 ft 444 kts
2026-04-18 10:25 34.41627 114.56387 24533 ft 445 kts 359°
2026-04-18 10:26 34.44730 114.56453 24535 ft 446 kts
2026-04-18 10:26 34.47834 114.56628 24527 ft 447 kts
2026-04-18 10:26 34.50938 114.56886 24524 ft 448 kts
2026-04-18 10:26 34.54045 114.57185 24521 ft 449 kts
2026-04-18 10:27 34.57160 114.57500 24518 ft 449 kts
2026-04-18 10:27 35.01303 114.61929 24611 ft 451 kts
2026-04-18 10:27 35.43363 114.65910 24734 ft 459 kts
2026-04-18 10:27 35.68888 114.68378 24413 ft 441 kts
2026-04-18 10:28 35.89199 114.70311 24505 ft 443 kts
2026-04-18 10:28 35.92292 114.70607 24514 ft 449 kts
2026-04-18 10:28 35.95413 114.70914 24508 ft 452 kts
2026-04-18 10:28 35.98557 114.71226 24504 ft 454 kts
2026-04-18 10:29 36.01703 114.71538 24495 ft 453 kts
2026-04-18 10:29 36.12856 114.72638 24491 ft 453 kts
2026-04-18 10:29 36.34343 114.74711 24475 ft 453 kts
2026-04-18 10:29 36.37445 114.75306 24484 ft 455 kts 12°
2026-04-18 10:30 36.45070 114.79413 24525 ft 458 kts 24°
2026-04-18 10:30 36.65646 114.91477 24485 ft 459 kts 22°
2026-04-18 10:30 37.01219 115.12011 24446 ft 460 kts 22°
2026-04-18 10:30 37.47635 115.39589 24455 ft 463 kts 23°
2026-04-18 10:31 37.75932 115.56553 24451 ft 464 kts 21°
2026-04-18 10:31 37.78953 115.57868 24466 ft 460 kts 11°
2026-04-18 10:31 37.82095 115.58558 24473 ft 458 kts
2026-04-18 10:31 37.86374 115.58556 24469 ft 456 kts 354°
2026-04-18 10:32 38.16686 115.56020 24401 ft 459 kts 355°
2026-04-18 10:32 38.19884 115.55905 24446 ft 459 kts 357°
2026-04-18 10:32 38.23074 115.55876 24444 ft 459 kts
2026-04-18 10:32 38.31832 115.58299 24478 ft 465 kts 20°
2026-04-18 10:33 38.34750 115.60109 24477 ft 467 kts 26°
2026-04-18 10:33 38.37591 115.62116 24457 ft 467 kts 27°
2026-04-18 10:33 38.40450 115.64088 24451 ft 467 kts 25°
2026-04-18 10:33 38.43343 115.65963 24457 ft 466 kts 24°
2026-04-18 10:34 38.46237 115.67828 24451 ft 467 kts 27°
2026-04-18 10:34 38.48888 115.70254 24452 ft 471 kts 40°
2026-04-18 10:34 38.51092 115.73361 24462 ft 475 kts 52°
2026-04-18 10:34 38.52803 115.76979 24458 ft 478 kts 61°
2026-04-18 10:35 38.54278 115.80782 24456 ft 478 kts 62°
2026-04-18 10:35 38.55743 115.84591 24449 ft 478 kts 62°
2026-04-18 10:35 38.57225 115.88392 24338 ft 476 kts 61°
2026-04-18 10:35 38.60386 115.96337 23826 ft 470 kts 61°
2026-04-18 10:36 38.61877 116.00043 23599 ft 468 kts 61°
2026-04-18 10:36 38.63364 116.03749 23364 ft 469 kts 61°
2026-04-18 10:36 38.64801 116.07491 23082 ft 469 kts 67°
2026-04-18 10:36 38.65535 116.11559 22789 ft 472 kts 86°
2026-04-18 10:37 38.65482 116.15748 22564 ft 470 kts 92°
2026-04-18 10:37 38.65315 116.19909 22300 ft 467 kts 92°
2026-04-18 10:37 38.65158 116.24042 22039 ft 464 kts 92°
2026-04-18 10:37 38.65026 116.28168 21727 ft 464 kts 91°
2026-04-18 10:38 38.64916 116.32278 21336 ft 461 kts 91°
2026-04-18 10:38 38.64812 116.36367 20954 ft 458 kts 91°
2026-04-18 10:38 38.64710 116.40427 20584 ft 456 kts 91°
2026-04-18 10:38 38.64631 116.44476 20212 ft 454 kts 88°
2026-04-18 10:39 38.65037 116.48386 19836 ft 445 kts 76°
2026-04-18 10:39 38.65787 116.52181 19484 ft 435 kts 74°
2026-04-18 10:39 38.66595 116.55880 19115 ft 427 kts 73°
2026-04-18 10:39 38.67937 116.61843 18528 ft 416 kts 73°
2026-04-18 10:40 38.68740 116.65373 18172 ft 410 kts 73°
2026-04-18 10:40 38.69539 116.68859 17769 ft 407 kts 73°
2026-04-18 10:40 38.70273 116.72044 17413 ft 406 kts 73°
2026-04-18 10:40 38.71070 116.75481 17039 ft 404 kts 73°
2026-04-18 10:41 38.71879 116.78945 16656 ft 403 kts 73°
2026-04-18 10:41 38.72682 116.82368 16254 ft 402 kts 73°
2026-04-18 10:41 38.73487 116.85777 15654 ft 405 kts 73°
2026-04-18 10:41 38.74311 116.89240 15050 ft 407 kts 73°
2026-04-18 10:42 38.75136 116.92685 14353 ft 402 kts 73°
2026-04-18 10:42 38.75958 116.96072 13629 ft 394 kts 73°
2026-04-18 10:42 38.76774 116.99392 13008 ft 385 kts 73°
2026-04-18 10:42 38.77709 117.03129 12555 ft 374 kts 73°
2026-04-18 10:43 38.78832 117.07523 12081 ft 353 kts 71°
2026-04-18 10:43 38.79910 117.10250 11908 ft 336 kts 51°
2026-04-18 10:43 38.81638 117.12184 11706 ft 329 kts 27°
2026-04-18 10:43 38.83756 117.13110 11448 ft 316 kts
2026-04-18 10:44 38.85895 117.13462 11200 ft 304 kts
2026-04-18 10:44 38.87964 117.13724 10939 ft 294 kts
2026-04-18 10:44 38.89972 117.13971 10691 ft 286 kts
2026-04-18 10:44 38.91922 117.14219 10437 ft 278 kts
2026-04-18 10:45 38.93821 117.14465 10182 ft 271 kts
2026-04-18 10:45 38.95674 117.14709 9936 ft 265 kts
2026-04-18 10:45 38.97497 117.14950 9690 ft 263 kts
2026-04-18 10:45 38.99317 117.15189 9435 ft 263 kts
2026-04-18 10:46 39.01130 117.15423 9183 ft 264 kts
2026-04-18 10:46 39.02990 117.15655 8699 ft 273 kts
2026-04-18 10:46 39.04887 117.15884 8236 ft 275 kts
2026-04-18 10:46 39.06799 117.16109 7739 ft 278 kts
2026-04-18 10:47 39.08752 117.16332 7165 ft 283 kts
2026-04-18 10:47 39.10712 117.16550 6592 ft 282 kts
2026-04-18 10:47 39.12661 117.16675 5987 ft 279 kts 355°
2026-04-18 10:47 39.14595 117.16528 5372 ft 278 kts 353°
2026-04-18 10:48 39.16518 117.16272 4770 ft 278 kts 351°
2026-04-18 10:48 39.18430 117.15971 4199 ft 274 kts 351°
2026-04-18 10:48 39.20253 117.15694 4063 ft 255 kts 351°
2026-04-18 10:48 39.21950 117.15763 3905 ft 244 kts 18°
2026-04-18 10:49 39.23310 117.16874 3807 ft 224 kts 50°
2026-04-18 10:49 39.24210 117.18441 3568 ft 214 kts 67°
2026-04-18 10:49 39.24867 117.20151 3260 ft 213 kts 70°
2026-04-18 10:49 39.25792 117.22652 2996 ft 210 kts 70°
2026-04-18 10:50 39.26442 117.24396 2581 ft 227 kts 69°
2026-04-18 10:50 39.26953 117.26285 2286 ft 215 kts 93°
2026-04-18 10:50 39.26545 117.27960 2121 ft 186 kts 139°
2026-04-18 10:50 39.25562 117.28872 2070 ft 170 kts 153°
2026-04-18 10:51 39.24572 117.29682 2024 ft 166 kts 154°
2026-04-18 10:51 39.23593 117.30406 1986 ft 159 kts 159°
2026-04-18 10:51 39.22595 117.31047 1836 ft 163 kts 159°
2026-04-18 10:51 39.21573 117.31680 1611 ft 161 kts 160°
2026-04-18 10:52 39.20567 117.32299 1421 ft 159 kts 159°
2026-04-18 10:52 39.19603 117.32893 1204 ft 149 kts 159°
2026-04-18 10:52 39.18678 117.33462 1028 ft 147 kts 159°
2026-04-18 10:52 39.17762 117.34024 812 ft 144 kts 158°
2026-04-18 10:53 39.16863 117.34551 654 ft 141 kts 155°
2026-04-18 10:53 39.15959 117.35159 420 ft 154 kts 157°
2026-04-18 10:53 39.14997 117.35738 236 ft 149 kts 160°
2026-04-18 10:53 39.14053 117.36322 54 ft 153 kts 158°
2026-04-18 10:54 39.13158 117.36864 21 ft 118 kts 154°
2026-04-18 10:54 39.12610 117.37199 18 ft 49 kts 154°
2026-04-18 10:54 39.12347 117.37251 18 ft 25 kts 184°
2026-04-18 10:54 39.12301 117.37159 18 ft 0 kts 328°
2026-04-18 10:55 39.12332 117.37139 18 ft 15 kts 334°
2026-04-18 10:55 39.12470 117.37053 20 ft 24 kts 335°
2026-04-18 10:55 39.12616 117.36965 18 ft 23 kts 334°
2026-04-18 10:55 39.12756 117.36879 20 ft 22 kts 334°
2026-04-18 10:56 39.12855 117.36769 19 ft 17 kts 260°
2026-04-18 10:56 39.12804 117.36631 19 ft 17 kts 244°
2026-04-18 10:56 39.12747 117.36477 19 ft 23 kts 244°
2026-04-18 10:56 39.12741 117.36302 18 ft 23 kts 334°
2026-04-18 10:57 39.12846 117.36162 19 ft 22 kts 306°
2026-04-18 10:57 39.12922 117.36003 18 ft 19 kts 276°
2026-04-18 10:57 39.12970 117.35915 18 ft 12 kts 323°
2026-04-18 10:57 39.13005 117.35883 19 ft 0 kts 325°
2026-04-18 10:58 39.13011 117.35878 18 ft 1 kts 323°
2026-04-18 10:58 39.13011 117.35877 18 ft 0 kts 323°
2026-04-18 11:00 39.18909 117.33319 1064 ft 147 kts 159°
2026-04-18 11:00 39.17990 117.33886 870 ft 145 kts 158°
2026-04-18 11:00 39.17086 117.34415 702 ft 141 kts 156°
2026-04-18 11:00 39.16196 117.35002 435 ft 151 kts 156°
2026-04-18 11:01 39.15236 117.35605 286 ft 150 kts 161°
2026-04-18 11:01 39.14292 117.36176 104 ft 152 kts 156°
2026-04-18 11:01 39.13358 117.36748 20 ft 133 kts 158°
2026-04-18 11:02 39.13307 117.36775 20 ft 129 kts 157°
2026-04-18 11:02 39.12686 117.37153 18 ft 69 kts 155°
2026-04-18 11:02 39.15343 117.35541 306 ft 146 kts 158°
2026-04-18 11:03 39.14905 117.35791 218 ft 149 kts 158°
2026-04-18 11:03 39.13957 117.36380 44 ft 153 kts 155°
2026-04-18 11:03 39.13088 117.36908 21 ft 111 kts 154°
2026-04-18 11:03 39.14114 117.36285 67 ft 152 kts 155°
2026-04-18 11:04 39.13407 117.36718 22 ft 137 kts 157°
2026-04-18 11:04 39.14135 117.36272 71 ft 139 kts 155°
2026-04-18 11:04 39.14000 117.36354 51 ft 153 kts 157°
2026-04-18 11:04 39.13120 117.36889 22 ft 114 kts 154°
2026-04-18 11:05 39.14661 117.35941 168 ft 129 kts 155°
2026-04-18 11:05 39.14596 117.35983 152 ft 151 kts 157°
2026-04-18 11:05 39.13645 117.36571 19 ft 149 kts 156°
2026-04-18 11:06 39.12878 117.37039 19 ft 91 kts 153°
2026-04-18 11:06 39.14388 117.36116 118 ft 140 kts 157°
2026-04-18 11:06 39.14303 117.36169 106 ft 152 kts 155°
2026-04-18 11:06 39.13365 117.36744 20 ft 133 kts 158°
2026-04-18 11:07 39.12716 117.37134 20 ft 72 kts 155°